Regional Weather Roundup
Issued by NWS Cleveland, OH

Home | Current Version | Previous Version | Graphics & Text | Print | Product List | Glossary On
Versions: 1 2 3 4 5 6 7 8 9 10 11 12 13 14 15 16 17 18 19 20 21 22 23 24 25 26 27 28 29 30 31 32 33 34 35 36 37 38 39 40 41 42 43 44 45 46 47 48 49 50
000
ASUS41 KCLE 222002
RWRCLE
OHIO REGIONAL WEATHER ROUNDUP
NATIONAL WEATHER SERVICE CLEVELAND, OH
400 PM EDT MON MAY 22 2017

NOTE: "FAIR" INDICATES FEW OR NO CLOUDS BELOW 12,000 FEET WITH NO
SIGNIFICANT WEATHER AND/OR OBSTRUCTIONS TO VISIBILITY.

OHZ001>008-015>018-024>027-034-035-043-044-222100-
   NORTHWEST OHIO

CITY           SKY/WX    TMP DP  RH WIND       PRES   REMARKS
DEFIANCE       SUNNY     67  43  41 W9        30.02S
FINDLAY        MOSUNNY   69  45  41 W13G21    30.03S
TOLEDO EXPRESS SUNNY     69  44  40 W16G23    30.00S
TOLEDO EXEC    SUNNY     69  47  45 W14G22    30.01S
LIMA           SUNNY     67  48  50 W9        30.04F
$$

OHZ009>014-019>023-028>033-038-089-222100-
   NORTHEAST OHIO

CITY           SKY/WX    TMP DP  RH WIND       PRES   REMARKS
CLE-HOPKINS    CLOUDY    69  45  41 SW12      30.03F
CLE-LAKEFRONT  CLOUDY    64  47  53 W10       30.01F
CUY CO. ARPT   MOSUNNY   66  48  52 W14       30.03S
LORAIN-ELYRIA  MOSUNNY   66  44  45 W15       30.03F
ASHTABULA      MOSUNNY   64  42  44 W12G22    30.02F
AKRON-CANTON   PTSUNNY   63  44  50 W8        30.05S
WOOSTER        PTSUNNY   63  45  51 W9        30.06S
MANSFIELD      CLOUDY    64  46  52 SW8       30.05F
YOUNGSTOWN     PTSUNNY   64  43  46 W16       30.03F
$$

OHZ042-051>053-060>062-070>072-077>081-222100-
  SOUTHWEST OHIO

CITY           SKY/WX    TMP DP  RH WIND       PRES   REMARKS
CINC-COVINGTON CLOUDY    68  44  42 VRB3      30.08F
CINC-LUNKEN    CLOUDY    67  46  47 CALM      30.08F
HAMILTON       CLOUDY    69  47  45 CALM      30.08F
DAYTON         CLOUDY    68  45  43 VRB6      30.07F
WRIGHT-PAT AFB CLOUDY    68  44  40 NW3       30.06F
DAYTON GENERAL CLOUDY    65  42  43 CALM      30.07F
WILMINGTON     CLOUDY    66  46  48 VRB5      30.07F
$$

OHZ036-037-039>041-045>050-054>059-063>069-073>076-082>088-222100-
  CENTRAL AND SOUTHEAST OHIO

CITY           SKY/WX    TMP DP  RH WIND       PRES   REMARKS
COLUMBUS       CLOUDY    65  44  46 W8        30.07F
OSU AIRPORT    CLOUDY    64  45  49 SW8       30.07F
BOLTON FIELD   SUNNY     63  45  51 CALM      30.08F
RICKENBACK AFB CLOUDY    64  44  47 NW5       30.07F
NEWARK         CLOUDY    67  45  45 VRB3      30.06F
MARION         CLOUDY    67  44  43 W9G17     30.06F
LANCASTER      CLOUDY    67  46  47 W6        30.07F
ZANESVILLE     CLOUDY    67  44  43 NW7       30.06F
NEW PHILLY     NOT AVBL
$$




USA.gov is the U.S. government's official web portal to all federal, state and local government web resources and services.